User: anonymous   Login
Location: *
(2.5500°S, 65.9667°W)
Time: 03:19:58
(UTC+00:00)
Language:

A-11 Canister half - Orbit

View from above orbital plane
View from above orbital plane
View from above satellite
View from above satellite

Ground track
Ground track

The orbit data is extracted from the following two-line orbital elements,

1 00053U 60009E   24112.41581285  .00000029  00000-0  11104-2 0  9997
2 00053  47.2768 249.1638 0098482 269.4727  89.4776 12.17330044839584
Epoch (UTC): 21 April 2024 09:58:46
Eccentricity: 0.0098482
inclination: 47.2768°
perigee height: 1525 km
apogee height: 1683 km
right ascension of ascending node: 249.1638°
argument of perigee: 269.4727°
revolutions per day: 12.17330044
mean anomaly at epoch: 89.4776°
orbit number at epoch: 83958

The dashed part of the orbit path shows where the satellite is in the earth's shadow,  

DLR